• In Hungary
  • List of Countries
  • For 7 days
  • Water Temperature
  • Satellite Maps
  • Weather Map
  • News
  • Weather Widgets
  • user-avatar
    Login

    Hourly Weather Klagenfurt

    Today, 19 January, Friday

    Time Temperature Precipitation Wind Pressure Humidity
    00:00 -2°C° 0 mm 2 mps 681 mmHg 82%
    01:00 -1°C° 0 mm 2 mps 681 mmHg 86%
    02:00 -1°C° 0 mm 2 mps 681 mmHg 87%
    03:00 -2°C° 0 mm 2 mps 681 mmHg 89%
    04:00 -2°C° 0 mm 2 mps 681 mmHg 90%
    05:00 0°C° 0.1 mm 1 mps 681 mmHg 90%
    06:00 +1°C° 0.1 mm 1 mps 681 mmHg 91%
    07:00 +1°C° 0.1 mm 1 mps 681 mmHg 91%
    08:00 +1°C° 0.2 mm 1 mps 681 mmHg 89%
    09:00 +2°C° 0.2 mm 1 mps 682 mmHg 88%
    10:00 +2°C° 0.2 mm 1 mps 682 mmHg 86%
    11:00 +3°C° 0.4 mm 1 mps 682 mmHg 86%
    12:00 +3°C° 0.4 mm 1 mps 683 mmHg 85%
    13:00 +3°C° 0.4 mm 1 mps 683 mmHg 85%
    14:00 +3°C° 0.6 mm 1 mps 683 mmHg 86%
    15:00 +2°C° 0.6 mm 1 mps 683 mmHg 87%
    16:00 +2°C° 0.6 mm 1 mps 683 mmHg 87%
    17:00 +1°C° 0.1 mm 1 mps 684 mmHg 87%
    18:00 +1°C° 0.1 mm 1 mps 684 mmHg 87%
    19:00 0°C° 0.1 mm 1 mps 685 mmHg 87%
    20:00 -1°C° 0 mm 1 mps 685 mmHg 87%
    21:00 -1°C° 0 mm 1 mps 685 mmHg 87%
    22:00 -2°C° 0 mm 1 mps 685 mmHg 87%
    23:00 -2°C° 0 mm 1 mps 685 mmHg 88%

    Tomorrow, 20 January, Saturday

    Time Temperature Precipitation Wind Pressure Humidity
    00:00 -2°C° 0 mm 1 mps 685 mmHg 88%
    01:00 -3°C° 0 mm 1 mps 685 mmHg 89%
    02:00 -3°C° 0 mm 1 mps 685 mmHg 89%
    03:00 -3°C° 0 mm 1 mps 685 mmHg 89%
    04:00 -3°C° 0 mm 1 mps 685 mmHg 89%
    05:00 -2°C° 0 mm 1 mps 685 mmHg 89%
    06:00 -2°C° 0 mm 1 mps 685 mmHg 88%
    07:00 -2°C° 0 mm 1 mps 685 mmHg 88%
    08:00 -1°C° 0 mm 1 mps 685 mmHg 84%
    09:00 0°C° 0 mm 1 mps 685 mmHg 81%
    10:00 0°C° 0 mm 0 mps 685 mmHg 78%
    11:00 +1°C° 0 mm 0 mps 685 mmHg 74%
    12:00 +2°C° 0 mm 0 mps 685 mmHg 70%
    13:00 +3°C° 0 mm 0 mps 685 mmHg 66%
    14:00 +3°C° 0 mm 1 mps 684 mmHg 71%
    15:00 +2°C° 0 mm 1 mps 684 mmHg 75%
    16:00 +1°C° 0 mm 1 mps 683 mmHg 79%
    17:00 +1°C° 0 mm 1 mps 683 mmHg 82%
    18:00 0°C° 0 mm 1 mps 682 mmHg 85%
    19:00 -1°C° 0 mm 1 mps 682 mmHg 87%
    20:00 -1°C° 0 mm 1 mps 681 mmHg 88%
    21:00 -1°C° 0 mm 1 mps 681 mmHg 88%
    22:00 -1°C° 0 mm 1 mps 681 mmHg 89%
    23:00 -1°C° 0.1 mm 1 mps 680 mmHg 89%

    Day after tomorrow, 21 January, Sunday

    Time Temperature Precipitation Wind Pressure Humidity
    00:00 -1°C° 0.1 mm 1 mps 680 mmHg 90%
    01:00 -1°C° 0.1 mm 1 mps 680 mmHg 90%
    02:00 -1°C° 0 mm 1 mps 679 mmHg 90%
    03:00 -1°C° 0 mm 1 mps 679 mmHg 89%
    04:00 -1°C° 0 mm 1 mps 679 mmHg 88%
    05:00 -1°C° 0.1 mm 1 mps 679 mmHg 87%
    06:00 -1°C° 0.1 mm 1 mps 680 mmHg 87%
    07:00 -1°C° 0.1 mm 1 mps 680 mmHg 86%
    08:00 0°C° 0.2 mm 1 mps 681 mmHg 83%
    09:00 +1°C° 0.2 mm 1 mps 681 mmHg 81%
    10:00 +2°C° 0.2 mm 1 mps 682 mmHg 79%
    11:00 +3°C° 0 mm 1 mps 683 mmHg 74%
    12:00 +4°C° 0 mm 1 mps 683 mmHg 69%
    13:00 +4°C° 0 mm 2 mps 684 mmHg 65%
    14:00 +3°C° 0 mm 2 mps 684 mmHg 68%
    15:00 +3°C° 0 mm 1 mps 684 mmHg 71%
    16:00 +2°C° 0 mm 1 mps 684 mmHg 74%
    17:00 +1°C° 0 mm 1 mps 685 mmHg 77%
    18:00 0°C° 0 mm 1 mps 685 mmHg 79%
    19:00 -2°C° 0 mm 1 mps 686 mmHg 81%
    20:00 -2°C° 0 mm 1 mps 686 mmHg 82%
    21:00 -2°C° 0 mm 1 mps 687 mmHg 82%
    22:00 -2°C° 0 mm 1 mps 687 mmHg 83%
    23:00 -2°C° 0.2 mm 1 mps 687 mmHg 84%

    22 January, Monday

    Time Temperature Precipitation Wind Pressure Humidity
    00:00 -2°C° 0.2 mm 1 mps 687 mmHg 86%
    01:00 -2°C° 0.2 mm 1 mps 687 mmHg 88%
    02:00 -2°C° 0.2 mm 1 mps 687 mmHg 88%
    03:00 -2°C° 0.2 mm 1 mps 687 mmHg 88%
    04:00 -2°C° 0.2 mm 1 mps 687 mmHg 88%
    05:00 -2°C° 0.2 mm 1 mps 687 mmHg 88%
    06:00 -2°C° 0.2 mm 1 mps 687 mmHg 88%
    07:00 -2°C° 0.2 mm 1 mps 687 mmHg 88%
    08:00 -2°C° 0.1 mm 1 mps 688 mmHg 85%
    09:00 -1°C° 0.1 mm 1 mps 688 mmHg 82%
    10:00 0°C° 0.1 mm 1 mps 688 mmHg 79%
    11:00 +1°C° 0 mm 1 mps 688 mmHg 76%
    12:00 +2°C° 0 mm 1 mps 688 mmHg 73%
    13:00 +3°C° 0 mm 1 mps 688 mmHg 71%
    14:00 +2°C° 0.1 mm 1 mps 687 mmHg 74%
    15:00 +2°C° 0.1 mm 1 mps 687 mmHg 76%
    16:00 +2°C° 0.1 mm 1 mps 687 mmHg 79%
    17:00 +1°C° 0 mm 1 mps 687 mmHg 82%
    18:00 0°C° 0 mm 1 mps 686 mmHg 84%
    19:00 0°C° 0 mm 1 mps 686 mmHg 87%
    20:00 0°C° 0.1 mm 1 mps 686 mmHg 87%
    21:00 0°C° 0.1 mm 1 mps 686 mmHg 87%
    22:00 0°C° 0.1 mm 1 mps 686 mmHg 88%
    23:00 0°C° 0.1 mm 1 mps 687 mmHg 88%

    23 January, Tuesday

    Time Temperature Precipitation Wind Pressure Humidity
    00:00 +1°C° 0.1 mm 1 mps 687 mmHg 88%
    01:00 +1°C° 0.1 mm 1 mps 687 mmHg 88%
    02:00 +1°C° 0 mm 1 mps 688 mmHg 88%
    03:00 +1°C° 0 mm 1 mps 688 mmHg 89%
    04:00 +1°C° 0 mm 1 mps 688 mmHg 90%
    05:00 +1°C° 0 mm 1 mps 688 mmHg 89%
    06:00 +1°C° 0 mm 1 mps 689 mmHg 89%
    07:00 +1°C° 0 mm 1 mps 689 mmHg 89%
    08:00 +2°C° 0 mm 1 mps 690 mmHg 87%
    09:00 +4°C° 0 mm 1 mps 691 mmHg 85%
    10:00 +5°C° 0 mm 1 mps 692 mmHg 82%
    11:00 +6°C° 0 mm 1 mps 692 mmHg 81%
    12:00 +7°C° 0 mm 1 mps 693 mmHg 80%
    13:00 +7°C° 0 mm 0 mps 693 mmHg 78%
    14:00 +6°C° 0 mm 0 mps 693 mmHg 82%
    15:00 +6°C° 0 mm 1 mps 693 mmHg 85%
    16:00 +6°C° 0 mm 1 mps 693 mmHg 89%
    17:00 +4°C° 0 mm 1 mps 694 mmHg 90%
    18:00 +3°C° 0 mm 1 mps 694 mmHg 90%
    19:00 +2°C° 0 mm 1 mps 694 mmHg 91%
    20:00 +2°C° 0 mm 1 mps 694 mmHg 90%
    21:00 +2°C° 0 mm 1 mps 695 mmHg 90%
    22:00 +1°C° 0 mm 1 mps 695 mmHg 89%
    23:00 +1°C° 0 mm 1 mps 695 mmHg 88%

    24 January, Wednesday

    Time Temperature Precipitation Wind Pressure Humidity
    00:00 +1°C° 0 mm 1 mps 695 mmHg 87%
    01:00 +1°C° 0 mm 1 mps 695 mmHg 87%
    02:00 +1°C° 0 mm 1 mps 695 mmHg 87%
    03:00 +1°C° 0 mm 1 mps 695 mmHg 86%
    04:00 +1°C° 0 mm 1 mps 695 mmHg 86%
    05:00 +1°C° 0 mm 1 mps 695 mmHg 86%
    06:00 +1°C° 0 mm 1 mps 695 mmHg 85%
    07:00 +1°C° 0 mm 1 mps 696 mmHg 85%
    08:00 +3°C° 0 mm 1 mps 696 mmHg 82%
    09:00 +3°C° 0 mm 0 mps 696 mmHg 80%
    10:00 +4°C° 0 mm 0 mps 697 mmHg 77%
    11:00 +6°C° 0 mm 0 mps 697 mmHg 75%
    12:00 +7°C° 0 mm 0 mps 697 mmHg 73%
    13:00 +8°C° 0 mm 0 mps 697 mmHg 72%
    14:00 +7°C° 0 mm 0 mps 696 mmHg 75%
    15:00 +6°C° 0 mm 0 mps 696 mmHg 79%
    16:00 +5°C° 0 mm 0 mps 696 mmHg 83%
    17:00 +4°C° 0 mm 0 mps 696 mmHg 84%
    18:00 +3°C° 0 mm 0 mps 695 mmHg 85%
    19:00 +2°C° 0 mm 0 mps 695 mmHg 87%
    20:00 +2°C° 0 mm 0 mps 695 mmHg 86%
    21:00 +2°C° 0 mm 0 mps 695 mmHg 86%
    22:00 +1°C° 0 mm 0 mps 695 mmHg 86%
    23:00 +1°C° 0 mm 0 mps 695 mmHg 86%
    Show more